TimePDT,TemperatureF,Dew PointF,Humidity,Sea Level PressureIn,VisibilityMPH,Wind Direction,Wind SpeedMPH,Gust SpeedMPH,PrecipitationIn,Events,Conditions,WindDirDegrees,DateUTC
12:15 AM,60.8,60.8,100,29.91,10.0,Calm,Calm,-,0.00,,Overcast,0,2013-09-14 07:15:00
12:35 AM,60.8,60.8,100,29.91,9.0,NW,3.5,-,0.00,,Overcast,310,2013-09-14 07:35:00
12:55 AM,60.8,60.8,100,29.90,10.0,NW,5.8,-,0.00,,Overcast,310,2013-09-14 07:55:00
1:15 AM,60.8,60.8,100,29.90,10.0,NW,3.5,-,0.00,,Overcast,320,2013-09-14 08:15:00
1:35 AM,60.8,60.8,100,29.90,10.0,Calm,Calm,-,0.00,,Overcast,0,2013-09-14 08:35:00
1:55 AM,60.8,60.8,100,29.90,10.0,NW,4.6,-,0.00,,Overcast,310,2013-09-14 08:55:00
2:15 AM,60.8,60.8,100,29.90,10.0,Calm,Calm,-,0.00,,Overcast,0,2013-09-14 09:15:00
2:35 AM,60.8,60.8,100,29.90,6.0,NW,3.5,-,0.00,,Overcast,310,2013-09-14 09:35:00
2:55 AM,60.8,60.8,100,29.89,10.0,Calm,Calm,-,0.00,,Overcast,0,2013-09-14 09:55:00
3:15 AM,60.8,60.8,100,29.89,10.0,NW,3.5,-,0.00,,Overcast,310,2013-09-14 10:15:00
3:35 AM,60.8,60.8,100,29.89,8.0,NW,4.6,-,0.00,,Overcast,310,2013-09-14 10:35:00
3:55 AM,60.8,60.8,100,29.89,10.0,NW,5.8,-,0.00,,Overcast,310,2013-09-14 10:55:00
4:15 AM,60.8,60.8,100,29.89,10.0,Calm,Calm,-,0.00,,Overcast,0,2013-09-14 11:15:00
4:35 AM,60.8,60.8,100,29.89,10.0,NW,3.5,-,0.00,,Overcast,310,2013-09-14 11:35:00
4:55 AM,60.8,60.8,100,29.89,5.0,WNW,3.5,-,0.00,,Overcast,300,2013-09-14 11:55:00
5:15 AM,60.8,60.8,100,29.89,3.0,WNW,4.6,-,0.00,,Overcast,300,2013-09-14 12:15:00
5:35 AM,60.8,60.8,100,29.89,4.0,WNW,3.5,-,0.00,,Overcast,300,2013-09-14 12:35:00
5:55 AM,59.0,59.0,100,29.89,3.0,WNW,3.5,-,0.00,,Overcast,300,2013-09-14 12:55:00
6:15 AM,59.0,59.0,100,29.89,3.0,WNW,3.5,-,0.00,,Overcast,300,2013-09-14 13:15:00
6:35 AM,59.0,59.0,100,29.89,3.0,WNW,4.6,-,0.00,,Overcast,300,2013-09-14 13:35:00
6:55 AM,59.0,59.0,100,29.89,3.0,WNW,4.6,-,0.00,,Overcast,290,2013-09-14 13:55:00
7:15 AM,57.2,57.2,100,29.89,2.5,WNW,6.9,-,0.00,,Overcast,300,2013-09-14 14:15:00
7:35 AM,57.2,57.2,100,29.89,2.5,WNW,5.8,-,0.00,,Overcast,300,2013-09-14 14:35:00
7:55 AM,59.0,59.0,100,29.89,2.0,WNW,4.6,-,0.00,,Overcast,300,2013-09-14 14:55:00
8:15 AM,59.0,59.0,100,29.89,1.8,WNW,3.5,-,0.00,,Overcast,290,2013-09-14 15:15:00
8:35 AM,59.0,59.0,100,29.89,1.2,WNW,4.6,-,0.00,,Overcast,290,2013-09-14 15:35:00
8:55 AM,59.0,59.0,100,29.89,1.2,WNW,3.5,-,0.00,,Overcast,300,2013-09-14 15:55:00
9:55 AM,59.0,59.0,100,29.89,2.5,WNW,3.5,-,0.00,,Overcast,300,2013-09-14 16:55:00
10:15 AM,60.8,60.8,100,29.89,2.0,NW,4.6,-,0.00,,Overcast,310,2013-09-14 17:15:00
10:35 AM,60.8,60.8,100,29.89,3.0,NW,5.8,-,0.00,,Overcast,310,2013-09-14 17:35:00
11:35 AM,62.6,62.6,100,29.88,8.0,WNW,6.9,-,0.00,,Overcast,300,2013-09-14 18:35:00
11:55 AM,62.6,62.6,100,29.87,10.0,NW,6.9,-,0.00,,Overcast,310,2013-09-14 18:55:00
12:15 PM,62.6,62.6,100,29.87,10.0,NW,4.6,-,0.00,,Overcast,320,2013-09-14 19:15:00
12:35 PM,62.6,62.6,100,29.87,9.0,WNW,5.8,-,0.00,,Overcast,300,2013-09-14 19:35:00
12:55 PM,64.4,64.4,100,29.86,9.0,NW,6.9,-,0.00,,Overcast,310,2013-09-14 19:55:00
1:15 PM,64.4,64.4,100,29.86,10.0,NW,5.8,-,0.00,,Overcast,310,2013-09-14 20:15:00
1:35 PM,64.4,64.4,100,29.85,10.0,WNW,6.9,-,0.00,,Overcast,300,2013-09-14 20:35:00
1:55 PM,64.4,64.4,100,29.85,7.0,NW,5.8,-,0.00,,Overcast,320,2013-09-14 20:55:00
2:15 PM,64.4,64.4,100,29.84,10.0,WNW,6.9,-,0.00,,Overcast,300,2013-09-14 21:15:00
2:35 PM,62.6,62.6,100,29.84,9.0,WNW,6.9,-,0.00,,Overcast,300,2013-09-14 21:35:00
2:55 PM,62.6,62.6,100,29.83,9.0,WNW,6.9,-,0.00,,Overcast,300,2013-09-14 21:55:00
3:15 PM,64.4,64.4,100,29.83,9.0,NW,6.9,-,0.00,,Overcast,310,2013-09-14 22:15:00
3:35 PM,64.4,64.4,100,29.82,10.0,NW,8.1,-,0.00,,Overcast,310,2013-09-14 22:35:00
3:55 PM,64.4,64.4,100,29.82,8.0,NW,5.8,-,0.00,,Overcast,310,2013-09-14 22:55:00
4:15 PM,64.4,64.4,100,29.81,7.0,NW,4.6,-,0.00,,Overcast,310,2013-09-14 23:15:00
4:35 PM,64.4,64.4,100,29.81,8.0,NNW,5.8,-,0.00,,Overcast,330,2013-09-14 23:35:00
4:55 PM,64.4,64.4,100,29.80,8.0,WNW,3.5,-,0.00,,Overcast,290,2013-09-14 23:55:00
5:15 PM,64.4,64.4,100,29.80,6.0,NW,4.6,-,0.00,,Overcast,310,2013-09-15 00:15:00
5:35 PM,64.4,64.4,100,29.79,5.0,NNW,3.5,-,0.00,,Overcast,340,2013-09-15 00:35:00
5:55 PM,64.4,64.4,100,29.79,6.0,NW,3.5,-,0.00,,Overcast,320,2013-09-15 00:55:00
6:15 PM,64.4,64.4,100,29.78,6.0,Calm,Calm,-,0.00,,Overcast,0,2013-09-15 01:15:00
6:35 PM,64.4,64.4,100,29.78,5.0,WNW,3.5,-,0.00,,Overcast,300,2013-09-15 01:35:00
6:55 PM,64.4,64.4,100,29.78,5.0,NNW,3.5,-,0.00,,Overcast,330,2013-09-15 01:55:00
7:15 PM,62.6,62.6,100,29.78,4.0,Calm,Calm,-,0.00,,Overcast,0,2013-09-15 02:15:00
7:35 PM,62.6,62.6,100,29.78,4.0,Calm,Calm,-,0.00,,Overcast,0,2013-09-15 02:35:00
7:55 PM,60.8,60.8,100,29.78,5.0,Calm,Calm,-,0.00,,Overcast,0,2013-09-15 02:55:00
8:15 PM,60.8,60.8,100,29.78,4.0,Calm,Calm,-,0.00,,Overcast,0,2013-09-15 03:15:00
8:35 PM,60.8,60.8,100,29.78,4.0,NNW,3.5,-,0.00,,Overcast,330,2013-09-15 03:35:00
8:55 PM,60.8,60.8,100,29.78,4.0,NW,3.5,-,0.00,,Overcast,320,2013-09-15 03:55:00
9:15 PM,60.8,60.8,100,29.78,3.0,NW,3.5,-,0.00,,Overcast,320,2013-09-15 04:15:00
9:35 PM,60.8,60.8,100,29.78,3.0,Calm,Calm,-,0.00,,Overcast,0,2013-09-15 04:35:00
9:55 PM,60.8,60.8,100,29.78,3.0,NNE,3.5,-,0.00,,Overcast,20,2013-09-15 04:55:00
10:15 PM,62.6,62.6,100,29.78,3.0,Calm,Calm,-,0.00,,Overcast,0,2013-09-15 05:15:00
10:35 PM,62.6,62.6,100,29.78,3.0,Calm,Calm,-,0.00,,Overcast,0,2013-09-15 05:35:00
10:55 PM,60.8,60.8,100,29.77,3.0,WNW,3.5,-,0.00,,Overcast,300,2013-09-15 05:55:00
11:15 PM,60.8,60.8,100,29.77,3.0,NW,3.5,-,0.00,,Overcast,310,2013-09-15 06:15:00
11:35 PM,60.8,60.8,100,29.77,2.5,NW,3.5,-,0.00,,Overcast,320,2013-09-15 06:35:00
11:55 PM,60.8,60.8,100,29.77,2.0,NNW,3.5,-,0.00,,Overcast,330,2013-09-15 06:55:00